This is the latest recevied weather packets stored in our database for station/object KC8YYF. If no packets are shown the sender has not sent any weather packets the latest 10 day(s).
| Time | Temp. | Humidity | Pressure | Rain* | Wind** | Luminosity | Snow |
|---|---|---|---|---|---|---|---|
| 1777762070 | 4.44° C | 85% | 1017.7 hPa | 0 mm | - | 20 W/m² | - |
| 1777761766 | 4.44° C | 85% | 1017.9 hPa | 0 mm | - | 18 W/m² | - |
| 1777761464 | 4.44° C | 85% | 1017.8 hPa | 0 mm | - | 21 W/m² | - |
| 1777761162 | 4.44° C | 85% | 1017.8 hPa | 0 mm | - | 21 W/m² | - |
| 1777760860 | 4.44° C | 84% | 1017.9 hPa | 0 mm | - | 17 W/m² | - |
| 1777760556 | 4.44° C | 83% | 1018 hPa | 0 mm | - | 17 W/m² | - |
| 1777760252 | 4.44° C | 83% | 1017.9 hPa | 0 mm | - | 18 W/m² | - |
| 1777759949 | 4.44° C | 83% | 1017.9 hPa | 0 mm | - | 28 W/m² | - |
| 1777759645 | 4.44° C | 81% | 1017.8 hPa | 0 mm | - | 26 W/m² | - |
| 1777759341 | 4.44° C | 80% | 1017.9 hPa | 0 mm | - | 33 W/m² | - |
| 1777759039 | 5° C | 78% | 1017.9 hPa | 0 mm | - | 22 W/m² | - |
| 1777758735 | 5° C | 77% | 1017.8 hPa | 0 mm | - | 28 W/m² | - |
| 1777758433 | 5° C | 75% | 1017.9 hPa | 0 mm | - | 27 W/m² | - |
| 1777758130 | 5.56° C | 74% | 1017.5 hPa | 0 mm | - | 28 W/m² | - |
| 1777757827 | 5.56° C | 74% | 1017.6 hPa | 0 mm | - | 28 W/m² | - |
| 1777757524 | 5.56° C | 75% | 1017.6 hPa | 0 mm | - | 32 W/m² | - |
| 1777757223 | 5.56° C | 75% | 1017.6 hPa | 0 mm | - | 29 W/m² | - |
| 1777756921 | 5.56° C | 75% | 1017.5 hPa | 0 mm | - | 29 W/m² | - |
| 1777756616 | 5.56° C | 75% | 1017.3 hPa | 0 mm | - | 28 W/m² | - |
| 1777756314 | 5.56° C | 73% | 1017.3 hPa | 0 mm | - | 27 W/m² | - |
| 1777756010 | 5.56° C | 74% | 1017.4 hPa | 0 mm | - | 16 W/m² | - |
| 1777755707 | 5.56° C | 74% | 1017.3 hPa | 0 mm | - | 23 W/m² | - |
| 1777755404 | 5.56° C | 72% | 1017.3 hPa | 0 mm | - | 27 W/m² | - |
| 1777755101 | 5.56° C | 74% | 1017.5 hPa | 0 mm | - | 26 W/m² | - |
| 1777754798 | 5.56° C | 73% | 1017.4 hPa | 0 mm | - | 29 W/m² | - |
* Rain latest hour (hover to see other rain measurements)
** Current wind speed in m/s (hover to see current wind gust speed)